Regional Weather Roundup
Issued by NWS

Home | Current Version | Previous Version | Graphics & Text | Print | Product List | Glossary On
Versions: 1 2 3 4 5 6 7 8 9 10 11 12 13 14 15 16 17 18 19 20 21 22 23 24 25 26 27 28 29 30 31 32 33 34 35 36 37 38 39 40 41 42 43 44 45 46 47 48 49 50
000
ASUS43 KMPX 261010
RWRMN
WEATHER ROUNDUP FOR MINNESOTA
NATIONAL WEATHER SERVICE TWIN CITIES/CHANHASSEN MN
400 AM CST FRI DEC 26 2014


NOTE: "FAIR" INDICATES FEW OR NO CLOUDS BELOW 12,000 FEET WITH NO
SIGNIFICANT WEATHER AND/OR OBSTRUCTIONS TO VISIBILITY. N/A MEANS
CURRENT SKY AND/OR WEATHER CONDITIONS ARE NOT AVAILABLE.

MNZ060>063-068>070-261100-
   Twin Cities Metro

CITY           SKY/WX    TMP DP  RH WIND       PRES   REMARKS
TWIN CITIES    CLOUDY    32  30  92 N10       29.88S WCI  24
ST PAUL        CLOUDY    32  30  92 VRB5      29.90S WCI  27
CRYSTAL        CLOUDY    33  30  88 N9        29.88S FOG     WCI  25
BLAINE         CLOUDY    34  34 100 N8        29.89S FOG     WCI  27
LAKEVILLE      CLOUDY    30  28  93 N7        29.86F FOG     WCI  23
EDEN PRAIRIE   CLOUDY    33  30  88 N10       29.86F WCI  25
SOUTH ST PAUL  CLOUDY    33  31  92 N7        29.88S WCI  27
LAKE ELMO      CLOUDY    32  32 100 N7        29.89R FOG     WCI  26
$$
MNZ001>005-007-008-013>017-022>024-027-028-261100-
   Northwest Minnesota

CITY           SKY/WX    TMP DP  RH WIND       PRES   REMARKS
BEMIDJI        CLOUDY    24  21  89 N6        29.98S WCI  17
HALLOCK        MOCLDY    21  19  93 N7        30.07R WCI  13
ROSEAU         CLOUDY    25  19  80 N6        30.03R WCI  18
WARROAD        PTCLDY    19  16  86 NW5       30.04R WCI  13
THIEF RVR FALL CLOUDY    25  19  80 N10       30.04R WCI  15
CROOKSTON      CLOUDY    23  21  93 N12       30.07S WCI  12
FOSSTON        CLOUDY    21  19  93 N13       30.02R WCI   9
DETROIT LAKES  CLOUDY    27  23  86 N5        30.00R WCI  21
MOORHEAD       CLOUDY    25  23  93 N15       30.05R WCI  12
PARK RAPIDS    CLOUDY    26  21  81 N8        29.96R WCI  18
MAHNOMEN       CLOUDY    24  22  91 N8        30.00R WCI  16
$$
MNZ006-009>011-018-025>026-261100-
   North Central Minnesota

CITY           SKY/WX    TMP DP  RH WIND       PRES   REMARKS
BAUDETTE       CLOUDY    23  18  81 N10       30.01R WCI  12
FLAG ISLAND    CLOUDY    21  18  86 N13       30.02R WCI   9
INTL FALLS     CLOUDY    25  22  88 NW7       29.98R WCI  17
WASKISH        CLOUDY    23  19  86 CALM      30.01R
BIG FORK       MIX PCPN  27  23  86 NW3       29.97R
LONGVILLE      CLOUDY    27  21  80 CALM      29.97R
GRAND RAPIDS   CLOUDY    27  19  74 N6        29.95R WCI  20
CRANE LAKE     CLOUDY    27  23  86 CALM      29.98R
ORR            CLOUDY    27  21  80 CALM      29.93S
COOK           CLOUDY    27  21  80 CALM      29.95S
WALKER         CLOUDY    24  21  87 N5        29.97S WCI  18
$$
MNZ012-019>021-037-261100-
   Northeast Minnesota

CITY           SKY/WX    TMP DP  RH WIND       PRES   REMARKS
DULUTH         CLOUDY    29  22  75 N9        29.91R WCI  20
ELY            CLOUDY    25  21  86 N3        29.93S
HIBBING        CLOUDY    27  20  75 N6        29.95R WCI  20
EVELETH        CLOUDY    27  23  86 N3        29.95R
DULUTH HARBOR  CLOUDY    34  28  80 N10       29.96R WCI  26
TWO HARBORS    CLOUDY    32  25  74 N5        29.91S WCI  27
SILVER BAY     CLOUDY    30  21  69 NW6       29.92R WCI  24
GRAND MARAIS     N/A     32  23  69 CALM      29.96R
G MARAIS ARPRT CLOUDY    25  19  80 CALM      29.90R
$$
MNZ029>031-032-039>041-046>048-054>057-064-261100-
   West Central Minnesota

CITY           SKY/WX    TMP DP  RH WIND       PRES   REMARKS
FERGUS FALLS   CLOUDY    27  21  80 N9G17     30.02R WCI  17
WHEATON        MIX PCPN  23  21  93 N15G23    30.03R WCI  10
MORRIS         MOCLDY    27  25  93 N14       29.96S WCI  15
ALEXANDRIA     CLOUDY    26  22  84 N14       29.95R WCI  14
ELBOW LAKE     CLOUDY    26  23  89 N12       29.98R WCI  15
WADENA         CLOUDY    25  21  86 N6        29.95S WCI  18
GLENWOOD       LGT SNOW  27  25  93 N12       29.95R WCI  16
APPLETON       CLOUDY    28  25  86 N13       29.97R WCI  18
BENSON         MIX PCPN  27  25  93 N8        29.96R WCI  18
ORTONVILLE     CLOUDY    27  21  80 N13       29.98R WCI  16
MADISON          N/A     30  27  86 N13       29.97S WCI  20
WILLMAR        CLOUDY    30  27  86 N8        29.95R WCI  23
$$
MNZ033>034-036-042>043-049>051-058-059-261100-
   Central Minnesota

CITY           SKY/WX    TMP DP  RH WIND       PRES   REMARKS
ST CLOUD       CLOUDY    32  26  78 N7        29.93R WCI  26
SAUK CENTRE    LGT SNOW  26  25  94 N7        29.94R WCI  19
PAYNESVILLE    CLOUDY    26  25  96 N7        29.94R WCI  19
AITKIN         CLOUDY    30  23  74 N7        29.93R WCI  23
PINE RIVER     CLOUDY    27  21  80 N9        29.99R WCI  17
BRAINERD       CLOUDY    27  21  78 N9        29.95R WCI  18
STAPLES        CLOUDY    25  21  86 N8        29.95S WCI  16
LONG PRAIRIE   CLOUDY    27  23  86 N9        29.95R WCI  17
LITTLE FALLS   LGT SNOW  28  25  86 N3        29.95R
LITCHFIELD     CLOUDY    30  30 100 N9        29.91F WCI  22
BUFFALO        CLOUDY    30  28  92 N7        29.92S WCI  24
MAPLE LAKE     CLOUDY    31  30  97 N6        29.92S WCI  25
$$
MNZ037-044-045-052-053-261100-
   East Central Minnesota

CITY           SKY/WX    TMP DP  RH WIND       PRES   REMARKS
PRINCETON      CLOUDY    30  28  93 N5        29.93R WCI  25
MORA           CLOUDY    28  27  93 VRB3      29.95R
CAMBRIDGE      LGT SNOW  32  25  74 N5        29.91R WCI  27
RUSH CITY      CLOUDY    30  29  95 N3        29.92R
MOOSE LAKE     LGT SNOW  30  27  86 N6        29.92R WCI  24
HINCKLEY       CLOUDY    30  30 100 CALM      29.93R
CLOQUET        CLOUDY    28  25  86 N7        29.92S WCI  21
MCGREGOR       CLOUDY    28  25  86 N8        29.94S WCI  20
$$
MNZ071>073-080-081-089-090-097-098-261100-
   Southwest Minnesota

CITY           SKY/WX    TMP DP  RH WIND       PRES   REMARKS
MONTEVIDEO     CLOUDY    27  27 100 NE12      29.96S WCI  16
GRANITE FALLS  CLOUDY    28  26  94 NW13      29.95S FOG     WCI  17
CANBY          CLOUDY    27  25  93 N10G18    29.97S WCI  17
MARSHALL       CLOUDY    27  21  80 N17       29.93S WCI  14
REDWOOD FALLS  CLOUDY    31  28  89 N10       29.91R WCI  22
OLIVIA         CLOUDY    30  28  93 N10       29.91S WCI  21
PIPESTONE      MIX PCPN  27  25  93 N14G21    29.90R WCI  15
WINDOM         CLOUDY    30  30 100 N15       29.88R FOG     WCI  19
WORTHINGTON    CLOUDY    28 -18  12 N16       29.89R WCI  17
JACKSON        CLOUDY    32  30  93 VRB10     29.86R FOG     WCI  24
TRACY          MIX PCPN  29  28  96 N16       29.91R WCI  17
SLAYTON        CLOUDY    27  26  98 N18       29.90R FOG     WCI  14
$$
MNZ065>067-074>077-082>085-091>093-261100-
   South Central Minnesota

CITY           SKY/WX    TMP DP  RH WIND       PRES   REMARKS
MANKATO        CLOUDY    32  28  86 N14       29.85S WCI  22
NEW ULM        CLOUDY    32  30  93 N8        29.87S FOG     WCI  25
ST JAMES       CLOUDY    34  30  86 N9        29.88R FOG     WCI  26
FAIRMONT       CLOUDY    32  28  86 N12       29.84R WCI  23
GLENCOE        CLOUDY    33  32  96 N8        29.88S FOG     WCI  26
FARIBAULT      CLOUDY    30  30 100 N7        29.85S FOG     WCI  23
OWATONNA       CLOUDY    32  30  93 N5        29.83F FOG     WCI  27
WASECA         CLOUDY    32  30  93 N9        29.85S FOG     WCI  24
ALBERT LEA     PTCLDY    28  28 100 CALM      29.82S FOG
$$
MNZ078>079-086>088-094>096-261100-
   Southeast Minnesota

CITY           SKY/WX    TMP DP  RH WIND       PRES   REMARKS
ROCHESTER      PTCLDY    28  26  92 NE6       29.83S WCI  22
RED WING       CLOUDY    34  30  86 CALM      29.86S
STANTON        CLOUDY    32  30  93 NE6       29.85S FOG     WCI  26
DODGE CENTER   CLOUDY    32  30  93 E7        29.82F WCI  26
WINONA         PTCLDY    30  30 100 CALM      29.88S FOG
AUSTIN         CLEAR     27  27 100 E3        29.82S
PRESTON        CLEAR     30  28  90 CALM      29.84S
$$
ABBREVIATIONS USED IN REMARKS
   TC - TEMPERATURES IN CELSIUS
  WCI - WIND CHILL INDEX
   HX - HEAT INDEX
  VSB - VISIBILITY
$$



USA.gov is the U.S. government's official web portal to all federal, state and local government web resources and services.